When you browse on this site, cookies collect data to enhance your experience and personalize the content and advertising you see.
Visit our Privacy Policy to learn more. By continuing to use the site, you agree to this use of cookies and data.
  • Em Portugal
  • Lista de países
  • Para 7 dias
  • Temperatura da água
  • Mapas de satélite
  • Mapa do tempo
  • Widgets de tempo
  • user-avatar
    Iniciar Sessão

    Previsão horária em Ratyncy

    Hoje, 19 Junho, Quarta-feira

    Tempo Temperatura Precipitação Vento Pressão Humidade
    00:00 +15°C° 0 mm 1 m/s 742 mmHg 79%
    01:00 +15°C° 0 mm 1 m/s 742 mmHg 79%
    02:00 +14°C° 0 mm 1 m/s 742 mmHg 80%
    03:00 +14°C° 0 mm 1 m/s 742 mmHg 81%
    04:00 +14°C° 0 mm 1 m/s 742 mmHg 82%
    05:00 +15°C° 0 mm 1 m/s 742 mmHg 84%
    06:00 +16°C° 0 mm 1 m/s 742 mmHg 80%
    07:00 +19°C° 0 mm 1 m/s 742 mmHg 76%
    08:00 +21°C° 0 mm 1 m/s 742 mmHg 72%
    09:00 +22°C° 0 mm 1 m/s 742 mmHg 67%
    10:00 +23°C° 0 mm 1 m/s 742 mmHg 62%
    11:00 +24°C° 0 mm 2 m/s 742 mmHg 57%
    12:00 +25°C° 0 mm 2 m/s 742 mmHg 56%
    13:00 +25°C° 0 mm 2 m/s 742 mmHg 55%
    14:00 +25°C° 0 mm 2 m/s 742 mmHg 54%
    15:00 +25°C° 0 mm 2 m/s 741 mmHg 57%
    16:00 +25°C° 0 mm 3 m/s 741 mmHg 61%
    17:00 +25°C° 0 mm 3 m/s 741 mmHg 64%
    18:00 +23°C° 0 mm 2 m/s 740 mmHg 68%
    19:00 +21°C° 0 mm 2 m/s 740 mmHg 73%
    20:00 +20°C° 0 mm 2 m/s 740 mmHg 77%
    21:00 +19°C° 0 mm 2 m/s 740 mmHg 79%
    22:00 +18°C° 0 mm 2 m/s 740 mmHg 80%
    23:00 +17°C° 0 mm 2 m/s 740 mmHg 82%

    Amanhã, 20 Junho, Quinta-feira

    Tempo Temperatura Precipitação Vento Pressão Humidade
    00:00 +16°C° 0 mm 3 m/s 740 mmHg 82%
    01:00 +16°C° 0 mm 3 m/s 740 mmHg 82%
    02:00 +14°C° 0 mm 3 m/s 740 mmHg 82%
    03:00 +16°C° 0 mm 3 m/s 740 mmHg 83%
    04:00 +15°C° 0 mm 4 m/s 739 mmHg 84%
    05:00 +15°C° 0 mm 4 m/s 739 mmHg 85%
    06:00 +17°C° 0 mm 4 m/s 739 mmHg 84%
    07:00 +19°C° 0 mm 4 m/s 739 mmHg 82%
    08:00 +21°C° 0 mm 5 m/s 739 mmHg 80%
    09:00 +22°C° 0.5 mm 5 m/s 739 mmHg 79%
    10:00 +23°C° 0.5 mm 5 m/s 739 mmHg 78%
    11:00 +24°C° 0.5 mm 6 m/s 739 mmHg 76%
    12:00 +24°C° 0.1 mm 6 m/s 739 mmHg 73%
    13:00 +24°C° 0.1 mm 6 m/s 738 mmHg 71%
    14:00 +26°C° 0.1 mm 6 m/s 738 mmHg 68%
    15:00 +25°C° 1.1 mm 5 m/s 738 mmHg 74%
    16:00 +24°C° 1.1 mm 3 m/s 738 mmHg 80%
    17:00 +23°C° 1.1 mm 2 m/s 738 mmHg 86%
    18:00 +21°C° 0.4 mm 2 m/s 738 mmHg 87%
    19:00 +21°C° 0.4 mm 3 m/s 737 mmHg 87%
    20:00 +21°C° 0.4 mm 3 m/s 737 mmHg 88%
    21:00 +20°C° 0 mm 3 m/s 737 mmHg 89%
    22:00 +20°C° 0 mm 3 m/s 737 mmHg 90%
    23:00 +19°C° 0 mm 3 m/s 737 mmHg 92%

    Depois de amanhã, 21 Junho, Sexta-feira

    Tempo Temperatura Precipitação Vento Pressão Humidade
    00:00 +19°C° 0 mm 3 m/s 737 mmHg 93%
    01:00 +19°C° 0 mm 3 m/s 737 mmHg 94%
    02:00 +19°C° 0 mm 3 m/s 737 mmHg 95%
    03:00 +19°C° 0.1 mm 3 m/s 737 mmHg 95%
    04:00 +19°C° 0.1 mm 3 m/s 737 mmHg 96%
    05:00 +20°C° 0.1 mm 3 m/s 737 mmHg 96%
    06:00 +21°C° 0 mm 3 m/s 738 mmHg 94%
    07:00 +22°C° 0 mm 4 m/s 738 mmHg 91%
    08:00 +23°C° 0 mm 4 m/s 738 mmHg 89%
    09:00 +25°C° 1.5 mm 4 m/s 738 mmHg 85%
    10:00 +26°C° 1.5 mm 4 m/s 738 mmHg 80%
    11:00 +27°C° 1.5 mm 4 m/s 738 mmHg 76%
    12:00 +27°C° 1.9 mm 4 m/s 738 mmHg 76%
    13:00 +27°C° 1.9 mm 3 m/s 738 mmHg 77%
    14:00 +27°C° 1.9 mm 3 m/s 738 mmHg 77%
    15:00 +27°C° 0.7 mm 2 m/s 738 mmHg 77%
    16:00 +27°C° 0.7 mm 2 m/s 738 mmHg 77%
    17:00 +27°C° 0.7 mm 1 m/s 738 mmHg 76%
    18:00 +26°C° 1.1 mm 1 m/s 738 mmHg 80%
    19:00 +25°C° 1.1 mm 1 m/s 737 mmHg 84%
    20:00 +23°C° 1.1 mm 2 m/s 737 mmHg 88%
    21:00 +23°C° 0.6 mm 1 m/s 737 mmHg 90%
    22:00 +22°C° 0.6 mm 1 m/s 738 mmHg 91%
    23:00 +21°C° 0.6 mm 1 m/s 738 mmHg 92%

    22 Junho, Sábado

    Tempo Temperatura Precipitação Vento Pressão Humidade
    00:00 +21°C° 0 mm 1 m/s 738 mmHg 93%
    01:00 +20°C° 0 mm 1 m/s 738 mmHg 93%
    02:00 +20°C° 0 mm 1 m/s 738 mmHg 94%
    03:00 +20°C° 0.1 mm 1 m/s 738 mmHg 94%
    04:00 +20°C° 0.1 mm 1 m/s 738 mmHg 94%
    05:00 +20°C° 0.1 mm 1 m/s 738 mmHg 95%
    06:00 +21°C° 0.3 mm 1 m/s 738 mmHg 94%
    07:00 +21°C° 0.3 mm 1 m/s 738 mmHg 93%
    08:00 +22°C° 0.3 mm 1 m/s 738 mmHg 92%
    09:00 +23°C° 0.6 mm 2 m/s 739 mmHg 87%
    10:00 +24°C° 0.6 mm 2 m/s 739 mmHg 82%
    11:00 +25°C° 0.6 mm 2 m/s 739 mmHg 77%
    12:00 +26°C° 0.1 mm 3 m/s 739 mmHg 75%
    13:00 +26°C° 0.1 mm 3 m/s 739 mmHg 73%
    14:00 +27°C° 0.1 mm 3 m/s 739 mmHg 70%
    15:00 +26°C° 0.2 mm 3 m/s 739 mmHg 73%
    16:00 +26°C° 0.2 mm 3 m/s 739 mmHg 76%
    17:00 +25°C° 0.2 mm 3 m/s 739 mmHg 79%
    18:00 +24°C° 0 mm 3 m/s 739 mmHg 82%
    19:00 +22°C° 0 mm 4 m/s 739 mmHg 85%
    20:00 +21°C° 0 mm 4 m/s 740 mmHg 88%
    21:00 +20°C° 0.4 mm 4 m/s 740 mmHg 90%
    22:00 +20°C° 0.4 mm 4 m/s 740 mmHg 92%
    23:00 +19°C° 0.4 mm 4 m/s 740 mmHg 94%

    23 Junho, Domingo

    Tempo Temperatura Precipitação Vento Pressão Humidade
    00:00 +19°C° 1 mm 4 m/s 740 mmHg 94%
    01:00 +19°C° 1 mm 4 m/s 740 mmHg 94%
    02:00 +18°C° 1 mm 4 m/s 740 mmHg 95%
    03:00 +18°C° 0.8 mm 4 m/s 740 mmHg 95%
    04:00 +17°C° 0.8 mm 5 m/s 739 mmHg 95%
    05:00 +17°C° 0.8 mm 5 m/s 739 mmHg 95%
    06:00 +17°C° 1.2 mm 5 m/s 739 mmHg 95%
    07:00 +18°C° 1.2 mm 4 m/s 739 mmHg 95%
    08:00 +19°C° 1.2 mm 4 m/s 739 mmHg 96%
    09:00 +20°C° 0.6 mm 4 m/s 739 mmHg 94%
    10:00 +21°C° 0.6 mm 5 m/s 739 mmHg 93%
    11:00 +22°C° 0.6 mm 5 m/s 739 mmHg 92%
    12:00 +22°C° 1.6 mm 4 m/s 738 mmHg 90%
    13:00 +22°C° 1.6 mm 4 m/s 738 mmHg 89%
    14:00 +24°C° 1.6 mm 3 m/s 738 mmHg 87%
    15:00 +22°C° 0.8 mm 3 m/s 737 mmHg 88%
    16:00 +22°C° 0.8 mm 3 m/s 737 mmHg 89%
    17:00 +22°C° 0.8 mm 3 m/s 737 mmHg 89%
    18:00 +21°C° 0.6 mm 3 m/s 737 mmHg 91%
    19:00 +21°C° 0.6 mm 3 m/s 737 mmHg 92%
    20:00 +20°C° 0.6 mm 3 m/s 736 mmHg 93%
    21:00 +20°C° 0.5 mm 3 m/s 737 mmHg 94%
    22:00 +20°C° 0.5 mm 3 m/s 737 mmHg 95%
    23:00 +19°C° 0.5 mm 4 m/s 737 mmHg 96%

    24 Junho, Segunda-feira

    Tempo Temperatura Precipitação Vento Pressão Humidade
    00:00 +19°C° 0.3 mm 3 m/s 737 mmHg 96%
    01:00 +18°C° 0.3 mm 2 m/s 737 mmHg 97%
    02:00 +18°C° 0.3 mm 2 m/s 737 mmHg 97%
    03:00 +19°C° 0.8 mm 1 m/s 737 mmHg 97%
    04:00 +19°C° 0.8 mm 1 m/s 737 mmHg 97%
    05:00 +19°C° 0.8 mm 1 m/s 737 mmHg 97%
    06:00 +19°C° 0.1 mm 2 m/s 737 mmHg 96%
    07:00 +20°C° 0.1 mm 3 m/s 738 mmHg 94%
    08:00 +20°C° 0.1 mm 3 m/s 738 mmHg 93%
    09:00 +20°C° 0.1 mm 4 m/s 738 mmHg 93%
    10:00 +19°C° 0.1 mm 4 m/s 739 mmHg 94%
    11:00 +19°C° 0.1 mm 5 m/s 739 mmHg 94%
    12:00 +19°C° 0 mm 5 m/s 739 mmHg 93%
    13:00 +19°C° 0 mm 5 m/s 739 mmHg 93%
    14:00 +17°C° 0 mm 6 m/s 740 mmHg 92%
    15:00 +17°C° 0 mm 6 m/s 740 mmHg 92%
    16:00 +17°C° 0 mm 6 m/s 740 mmHg 91%
    17:00 +17°C° 0 mm 6 m/s 740 mmHg 90%
    18:00 +17°C° 0 mm 6 m/s 741 mmHg 89%
    19:00 +17°C° 0 mm 6 m/s 741 mmHg 88%
    20:00 +16°C° 0 mm 6 m/s 741 mmHg 87%
    21:00 +16°C° 0 mm 6 m/s 742 mmHg 88%
    22:00 +15°C° 0 mm 5 m/s 742 mmHg 88%
    23:00 +15°C° 0 mm 5 m/s 743 mmHg 89%
    Mostrar mais